| time (UTC) | temp C | wind direction | speed KPH | gust KPH | rain 1hr cm | rain 24hr cm | rain mn cm | humidity % | barometer mb |
| 20260505124852 | 13 | 156 | 0.0 | 0.0 | 0.36 | 0.56 | 0.56 | 97 | 1014.6 |
| 20260505124349 | 13 | 248 | 0.0 | 1.6 | 0.36 | 0.56 | 0.56 | 97 | 1014.6 |
| 20260505123845 | 13 | 40 | 1.6 | 1.6 | 0.00 | 0.51 | 0.51 | 97 | 1014.7 |
| 20260505123342 | 13 | 239 | 1.6 | 1.6 | 0.00 | 0.51 | 0.51 | 96 | 1014.9 |
| 20260505122838 | 13 | 147 | 1.6 | 1.6 | 0.00 | 0.51 | 0.51 | 97 | 1014.8 |
| 20260505122336 | 13 | 157 | 4.8 | 4.8 | 0.13 | 0.51 | 0.51 | 96 | 1014.9 |
| 20260505121832 | 12 | 334 | 4.8 | 8.0 | 0.30 | 0.51 | 0.51 | 96 | 1015.0 |
| 20260505121329 | 12 | 285 | 6.4 | 9.7 | 0.18 | 0.48 | 0.48 | 96 | 1014.9 |
| 20260505120825 | 13 | 225 | 1.6 | 1.6 | 0.00 | 0.46 | 0.46 | 96 | 1014.8 |
| 20260505120321 | 12 | 350 | 6.4 | 9.7 | 0.00 | 0.46 | 0.46 | 96 | 1014.9 |
| 20260505115820 | 12 | 337 | 3.2 | 3.2 | 0.00 | 0.46 | 0.46 | 97 | 1014.9 |
| 20260505115318 | 12 | 348 | 6.4 | 9.7 | 0.13 | 0.46 | 0.46 | 97 | 1015.0 |
| 20260505114815 | 13 | 190 | 6.4 | 9.7 | 0.13 | 0.46 | 0.46 | 97 | 1014.8 |
| 20260505114312 | 13 | 92 | 0.0 | 1.6 | 0.13 | 0.46 | 0.46 | 97 | 1015.1 |
| 20260505113808 | 13 | 214 | 8.0 | 11.3 | 0.00 | 0.43 | 0.43 | 97 | 1014.9 |
| 20260505113304 | 13 | 172 | 4.8 | 4.8 | 0.00 | 0.43 | 0.43 | 97 | 1015.1 |
| 20260505112800 | 13 | 337 | 3.2 | 3.2 | 0.00 | 0.43 | 0.43 | 97 | 1014.7 |
| 20260505112258 | 13 | 32 | 1.6 | 3.2 | 0.00 | 0.43 | 0.43 | 97 | 1014.9 |
| 20260505111753 | 12 | 24 | 1.6 | 1.6 | 0.00 | 0.43 | 0.43 | 98 | 1014.8 |
| 20260505111249 | 12 | 349 | 1.6 | 3.2 | 0.18 | 0.43 | 0.43 | 97 | 1014.6 |
| 20260505110745 | 12 | 347 | 6.4 | 8.0 | 0.30 | 0.43 | 0.43 | 97 | 1014.8 |
| 20260505110243 | 13 | 195 | 4.8 | 8.0 | 0.13 | 0.41 | 0.41 | 97 | 1015.0 |
| 20260505102218 | 13 | 76 | 3.2 | 3.2 | 0.18 | 0.38 | 0.38 | 96 | 1015.0 |
| 20260505101717 | 13 | 114 | 1.6 | 3.2 | 0.00 | 0.36 | 0.36 | 96 | 1014.8 |
| 20260505101212 | 13 | 302 | 12.9 | 20.9 | 0.00 | 0.36 | 0.36 | 95 | 1015.1 |
| 20260505100709 | 13 | 299 | 3.2 | 3.2 | 0.13 | 0.36 | 0.36 | 95 | 1014.9 |
| 20260505100206 | 13 | 278 | 6.4 | 9.7 | 0.43 | 0.36 | 0.36 | 95 | 1015.0 |
| 20260505095701 | 13 | 232 | 4.8 | 4.8 | 0.48 | 0.33 | 0.33 | 95 | 1015.0 |
| 20260505095200 | 13 | 279 | 4.8 | 8.0 | 0.36 | 0.28 | 0.28 | 94 | 1015.0 |
| 20260505094655 | 13 | 173 | 6.4 | 11.3 | 0.30 | 0.25 | 0.25 | 94 | 1014.9 |
| 20260505094151 | 13 | 273 | 8.0 | 16.1 | 0.61 | 0.25 | 0.25 | 93 | 1015.0 |
| 20260505093648 | 14 | 257 | 9.7 | 12.9 | 1.19 | 0.20 | 0.20 | 89 | 1014.9 |
| 20260505093145 | 15 | 18 | 6.4 | 12.9 | 0.61 | 0.10 | 0.10 | 86 | 1014.9 |
| 20260505092642 | 15 | 253 | 11.3 | 14.5 | 0.00 | 0.00 | 0.00 | 84 | 1014.7 |
| 20260505092141 | 15 | 300 | 14.5 | 17.7 | 0.00 | 0.00 | 0.00 | 82 | 1014.4 |
| 20260505091637 | 16 | 311 | 8.0 | 11.3 | 0.00 | 0.00 | 0.00 | 75 | 1014.5 |
| 20260505091135 | 16 | 175 | 3.2 | 4.8 | 0.00 | 0.00 | 0.00 | 72 | 1014.3 |
| 20260505090633 | 16 | 243 | 8.0 | 11.3 | 0.00 | 0.00 | 0.00 | 70 | 1014.5 |
| 20260505090131 | 16 | 228 | 8.0 | 11.3 | 0.00 | 0.00 | 0.00 | 69 | 1014.6 |
| 20260505085628 | 16 | 313 | 9.7 | 14.5 | 0.00 | 0.00 | 0.00 | 68 | 1014.7 |
| 20260505085126 | 16 | 207 | 9.7 | 16.1 | 0.00 | 0.00 | 0.00 | 66 | 1014.5 |
| 20260505084624 | 16 | 161 | 4.8 | 8.0 | 0.00 | 0.00 | 0.00 | 66 | 1014.6 |
| 20260505084122 | 17 | 306 | 17.7 | 24.1 | 0.00 | 0.00 | 0.00 | 64 | 1014.7 |
| 20260505083619 | 17 | 269 | 4.8 | 12.9 | 0.00 | 0.00 | 0.00 | 63 | 1014.5 |
| 20260505083115 | 17 | 171 | 8.0 | 9.7 | 0.00 | 0.00 | 0.00 | 63 | 1014.5 |
| 20260505082611 | 17 | 19 | 12.9 | 16.1 | 0.00 | 0.00 | 0.00 | 63 | 1014.4 |
| 20260505082109 | 17 | 17 | 12.9 | 17.7 | 0.00 | 0.00 | 0.00 | 63 | 1014.7 |
| 20260505081604 | 17 | 247 | 14.5 | 20.9 | 0.00 | 0.00 | 0.00 | 63 | 1014.5 |
| 20260505081102 | 17 | 244 | 8.0 | 12.9 | 0.00 | 0.00 | 0.00 | 61 | 1014.6 |
| 20260505080558 | 17 | 244 | 9.7 | 12.9 | 0.00 | 0.00 | 0.00 | 59 | 1014.6 |
| 20260505080055 | 17 | 327 | 8.0 | 9.7 | 0.00 | 0.00 | 0.00 | 56 | 1014.2 |
| 20260505075550 | 17 | 249 | 8.0 | 11.3 | 0.00 | 0.00 | 0.00 | 58 | 1014.5 |
| 20260505075048 | 17 | 209 | 8.0 | 16.1 | 0.00 | 0.00 | 0.00 | 59 | 1014.2 |
| 20260505074544 | 17 | 171 | 6.4 | 8.0 | 0.00 | 0.00 | 0.00 | 60 | 1014.3 |
| 20260505074042 | 17 | 276 | 11.3 | 14.5 | 0.00 | 0.00 | 0.00 | 60 | 1014.3 |
| 20260505073539 | 18 | 180 | 4.8 | 8.0 | 0.00 | 0.00 | 0.00 | 61 | 1014.3 |
| 20260505073038 | 18 | 302 | 8.0 | 9.7 | 0.00 | 0.00 | 0.00 | 60 | 1014.2 |
| 20260505072533 | 18 | 186 | 8.0 | 11.3 | 0.00 | 0.00 | 0.00 | 62 | 1014.2 |
| 20260505072030 | 17 | 134 | 4.8 | 8.0 | 0.00 | 0.00 | 0.00 | 63 | 1014.3 |
| 20260505071525 | 17 | 327 | 11.3 | 14.5 | 0.00 | 0.00 | 0.00 | 62 | 1014.2 |
| 20260505071024 | 17 | 323 | 4.8 | 9.7 | 0.00 | 0.00 | 0.00 | 62 | 1014.4 |
| 20260505070520 | 17 | 195 | 9.7 | 12.9 | 0.00 | 0.00 | 0.00 | 62 | 1014.0 |
| 20260505070016 | 16 | 249 | 6.4 | 11.3 | 0.00 | 0.00 | 0.00 | 63 | 1014.2 |
| 20260505065512 | 16 | 278 | 8.0 | 11.3 | 0.00 | 0.00 | 0.00 | 63 | 1014.1 |
| 20260505065009 | 17 | 72 | 8.0 | 14.5 | 0.00 | 0.00 | 0.00 | 61 | 1014.3 |
| 20260505064506 | 17 | 162 | 4.8 | 8.0 | 0.00 | 0.00 | 0.00 | 64 | 1014.0 |
| 20260505064005 | 16 | 326 | 6.4 | 11.3 | 0.00 | 0.00 | 0.00 | 66 | 1014.1 |
| 20260505063501 | 16 | 191 | 4.8 | 9.7 | 0.00 | 0.00 | 0.00 | 68 | 1013.9 |
| 20260505062957 | 16 | 143 | 8.0 | 11.3 | 0.00 | 0.00 | 0.00 | 67 | 1013.8 |
| 20260505062454 | 17 | 206 | 11.3 | 17.7 | 0.00 | 0.00 | 0.00 | 67 | 1013.9 |
| 20260505061951 | 16 | 144 | 4.8 | 9.7 | 0.00 | 0.00 | 0.00 | 68 | 1013.8 |
| 20260505061449 | 15 | 240 | 9.7 | 12.9 | 0.00 | 0.00 | 0.00 | 69 | 1014.1 |
| 20260505060946 | 15 | 121 | 8.0 | 11.3 | 0.00 | 0.00 | 0.00 | 70 | 1013.9 |
| 20260505060443 | 16 | 232 | 4.8 | 4.8 | 0.00 | 0.00 | 0.00 | 69 | 1013.9 |
| 20260505055940 | 16 | 224 | 4.8 | 8.0 | 0.00 | 0.00 | 0.00 | 69 | 1014.0 |
| 20260505055436 | 16 | 209 | 11.3 | 14.5 | 0.00 | 0.00 | 0.00 | 69 | 1014.0 |
| 20260505054932 | 16 | 163 | 8.0 | 12.9 | 0.00 | 0.00 | 0.00 | 69 | 1014.0 |
| 20260505054430 | 15 | 185 | 6.4 | 8.0 | 0.00 | 0.00 | 0.00 | 70 | 1014.0 |
| 20260505053928 | 15 | 168 | 8.0 | 12.9 | 0.00 | 0.00 | 0.00 | 71 | 1013.9 |
| 20260505053425 | 15 | 274 | 4.8 | 4.8 | 0.00 | 0.00 | 0.00 | 72 | 1013.8 |
| 20260505052921 | 15 | 214 | 4.8 | 4.8 | 0.00 | 0.00 | 0.00 | 74 | 1013.9 |
| 20260505052418 | 15 | 31 | 9.7 | 14.5 | 0.00 | 0.00 | 0.00 | 74 | 1013.8 |
| 20260505051916 | 15 | 133 | 4.8 | 8.0 | 0.00 | 0.00 | 0.00 | 74 | 1013.8 |
| 20260505051413 | 15 | 192 | 1.6 | 4.8 | 0.00 | 0.00 | 0.00 | 76 | 1013.9 |
| 20260505050911 | 15 | 157 | 4.8 | 8.0 | 0.00 | 0.00 | 0.00 | 77 | 1013.8 |
| 20260505050409 | 14 | 147 | 3.2 | 4.8 | 0.00 | 0.00 | 0.00 | 77 | 1013.9 |
| 20260505041336 | 13 | 158 | 0.0 | 0.0 | 0.00 | 0.00 | 0.00 | 78 | 1013.5 |
| 20260505040833 | 13 | 153 | 0.0 | 0.0 | 0.00 | 0.00 | 0.00 | 78 | 1013.5 |
| 20260505040331 | 13 | 146 | 0.0 | 0.0 | 0.00 | 0.00 | 0.00 | 77 | 1013.5 |
| 20260505035827 | 13 | 147 | 1.6 | 1.6 | 0.00 | 0.00 | 0.00 | 78 | 1013.5 |
| 20260505035323 | 13 | 154 | 1.6 | 1.6 | 0.00 | 0.00 | 0.00 | 78 | 1013.3 |
| 20260505034821 | 13 | 148 | 0.0 | 0.0 | 0.00 | 0.00 | 0.00 | 78 | 1013.5 |
| 20260505034317 | 13 | 143 | 0.0 | 0.0 | 0.00 | 0.00 | 0.00 | 78 | 1013.4 |
| 20260505033814 | 13 | 139 | 0.0 | 1.6 | 0.00 | 0.00 | 0.00 | 78 | 1012.9 |
| 20260505033311 | 13 | 146 | 0.0 | 0.0 | 0.00 | 0.00 | 0.00 | 78 | 1013.5 |
| 20260505032810 | 13 | 180 | 0.0 | 1.6 | 0.00 | 0.00 | 0.00 | 78 | 1013.4 |
| 20260505032305 | 13 | 143 | 1.6 | 1.6 | 0.00 | 0.00 | 0.00 | 78 | 1013.4 |
| 20260505031803 | 13 | 38 | 0.0 | 1.6 | 0.00 | 0.00 | 0.00 | 78 | 1013.2 |
| 20260505031259 | 13 | 148 | 0.0 | 0.0 | 0.00 | 0.00 | 0.00 | 79 | 1013.3 |
| 20260505030756 | 13 | 272 | 1.6 | 1.6 | 0.00 | 0.00 | 0.00 | 79 | 1013.4 |
| 20260505030252 | 13 | 203 | 0.0 | 1.6 | 0.00 | 0.00 | 0.00 | 79 | 1013.1 |
| 20260505025748 | 13 | 142 | 0.0 | 0.0 | 0.00 | 0.00 | 0.00 | 79 | 1013.2 |
| 20260505025246 | 13 | 146 | 0.0 | 0.0 | 0.00 | 0.00 | 0.00 | 78 | 1013.1 |
| 20260505024744 | 13 | 322 | 1.6 | 1.6 | 0.00 | 0.00 | 0.00 | 78 | 1013.1 |
| 20260505024241 | 13 | 280 | 1.6 | 1.6 | 0.00 | 0.00 | 0.00 | 78 | 1013.2 |
| 20260505023738 | 13 | 158 | 0.0 | 1.6 | 0.00 | 0.00 | 0.00 | 78 | 1012.9 |
| 20260505023235 | 13 | 248 | 3.2 | 4.8 | 0.00 | 0.00 | 0.00 | 78 | 1012.9 |
| 20260505022733 | 13 | 314 | 1.6 | 3.2 | 0.00 | 0.00 | 0.00 | 78 | 1012.8 |
| 20260505022230 | 13 | 139 | 1.6 | 3.2 | 0.00 | 0.00 | 0.00 | 78 | 1013.2 |
| 20260505021726 | 13 | 311 | 1.6 | 3.2 | 0.00 | 0.00 | 0.00 | 78 | 1013.2 |
| 20260505021223 | 13 | 224 | 0.0 | 1.6 | 0.00 | 0.00 | 0.00 | 78 | 1013.1 |
| 20260505020719 | 13 | 158 | 1.6 | 1.6 | 0.00 | 0.00 | 0.00 | 78 | 1013.1 |
| 20260505020214 | 13 | 292 | 1.6 | 3.2 | 0.00 | 0.00 | 0.00 | 78 | 1013.1 |
| 20260505015712 | 13 | 37 | 1.6 | 1.6 | 0.00 | 0.00 | 0.00 | 79 | 1013.1 |
| 20260505015209 | 13 | 161 | 0.0 | 0.0 | 0.00 | 0.00 | 0.00 | 79 | 1012.8 |
| 20260505014706 | 13 | 133 | 3.2 | 3.2 | 0.00 | 0.00 | 0.00 | 80 | 1012.9 |
| 20260505014203 | 13 | 330 | 0.0 | 0.0 | 0.00 | 0.00 | 0.00 | 80 | 1013.1 |
| 20260505013659 | 13 | 313 | 1.6 | 3.2 | 0.00 | 0.00 | 0.00 | 80 | 1012.9 |
| 20260505013151 | 13 | 295 | 1.6 | 1.6 | 0.00 | 0.00 | 0.00 | 80 | 1012.9 |
| 20260505012649 | 13 | 143 | 1.6 | 1.6 | 0.00 | 0.00 | 0.00 | 80 | 1012.9 |
| 20260505012146 | 13 | 306 | 3.2 | 3.2 | 0.00 | 0.00 | 0.00 | 80 | 1013.1 |
| 20260505011641 | 13 | 294 | 4.8 | 4.8 | 0.00 | 0.00 | 0.00 | 79 | 1012.9 |
| 20260505011139 | 13 | 242 | 1.6 | 3.2 | 0.00 | 0.00 | 0.00 | 79 | 1013.1 |
| 20260505010634 | 13 | 303 | 4.8 | 8.0 | 0.00 | 0.00 | 0.00 | 79 | 1013.1 |
| 20260505010131 | 13 | 232 | 3.2 | 3.2 | 0.00 | 0.00 | 0.00 | 79 | 1013.2 |
| 20260505005627 | 13 | 321 | 3.2 | 4.8 | 0.00 | 0.00 | 0.00 | 80 | 1012.9 |
| 20260505005124 | 13 | 265 | 3.2 | 3.2 | 0.00 | 0.00 | 0.00 | 81 | 1013.2 |
| 20260505004621 | 13 | 141 | 3.2 | 3.2 | 0.00 | 0.00 | 0.00 | 81 | 1013.2 |
| 20260505004118 | 13 | 317 | 1.6 | 3.2 | 0.00 | 0.00 | 0.00 | 81 | 1013.2 |
| 20260505003615 | 13 | 95 | 3.2 | 3.2 | 0.00 | 0.00 | 0.00 | 82 | 1013.3 |
| 20260505003112 | 13 | 303 | 4.8 | 8.0 | 0.00 | 0.00 | 0.00 | 82 | 1013.4 |
| 20260505002607 | 13 | 178 | 3.2 | 3.2 | 0.00 | 0.00 | 0.00 | 82 | 1013.4 |
| 20260505002101 | 13 | 127 | 1.6 | 1.6 | 0.00 | 0.00 | 0.00 | 82 | 1013.5 |
| 20260505001558 | 13 | 304 | 1.6 | 1.6 | 0.00 | 0.00 | 0.00 | 81 | 1013.4 |
| 20260505001055 | 13 | 305 | 3.2 | 4.8 | 0.00 | 0.00 | 0.00 | 81 | 1013.3 |
| 20260505000552 | 13 | 221 | 0.0 | 1.6 | 0.00 | 0.00 | 0.00 | 81 | 1013.6 |
| 20260505000050 | 13 | 131 | 1.6 | 1.6 | 0.00 | 0.00 | 0.00 | 82 | 1013.5 |
| 20260504235546 | 13 | 162 | 0.0 | 1.6 | 0.00 | 0.00 | 0.00 | 82 | 1013.6 |
| 20260504235043 | 13 | 128 | 1.6 | 3.2 | 0.00 | 0.00 | 0.00 | 81 | 1013.6 |
| 20260504234540 | 13 | 218 | 1.6 | 1.6 | 0.00 | 0.00 | 0.00 | 82 | 1013.5 |
| 20260504234037 | 13 | 150 | 0.0 | 1.6 | 0.00 | 0.00 | 0.00 | 81 | 1013.7 |
| 20260504233532 | 13 | 309 | 3.2 | 3.2 | 0.00 | 0.00 | 0.00 | 81 | 1013.6 |
| 20260504233029 | 13 | 198 | 3.2 | 8.0 | 0.00 | 0.00 | 0.00 | 81 | 1013.6 |
| 20260504232526 | 13 | 258 | 1.6 | 3.2 | 0.00 | 0.00 | 0.00 | 81 | 1013.7 |
| 20260504232024 | 13 | 270 | 4.8 | 4.8 | 0.00 | 0.00 | 0.00 | 80 | 1013.7 |
| 20260504231521 | 13 | 291 | 3.2 | 4.8 | 0.00 | 0.00 | 0.00 | 80 | 1013.7 |
| 20260504231017 | 13 | 119 | 1.6 | 1.6 | 0.00 | 0.00 | 0.00 | 80 | 1013.8 |
| 20260504230513 | 13 | 186 | 1.6 | 1.6 | 0.00 | 0.00 | 0.00 | 80 | 1013.9 |
| 20260504230012 | 13 | 81 | 1.6 | 1.6 | 0.00 | 0.00 | 0.00 | 80 | 1014.1 |
| 20260504225509 | 13 | 143 | 0.0 | 1.6 | 0.00 | 0.00 | 0.00 | 80 | 1014.2 |
| 20260504225006 | 13 | 163 | 1.6 | 3.2 | 0.00 | 0.00 | 0.00 | 80 | 1014.1 |
| 20260504224502 | 13 | 280 | 1.6 | 1.6 | 0.00 | 0.00 | 0.00 | 80 | 1014.1 |
| 20260504223959 | 13 | 305 | 1.6 | 3.2 | 0.00 | 0.00 | 0.00 | 80 | 1014.2 |
| 20260504223456 | 13 | 289 | 3.2 | 3.2 | 0.00 | 0.00 | 0.00 | 81 | 1014.2 |
| 20260504222951 | 13 | 298 | 1.6 | 3.2 | 0.00 | 0.00 | 0.00 | 81 | 1014.5 |
| 20260504222449 | 13 | 144 | 1.6 | 3.2 | 0.00 | 0.00 | 0.00 | 81 | 1014.4 |
| 20260504221946 | 12 | 74 | 1.6 | 1.6 | 0.00 | 0.00 | 0.00 | 81 | 1014.4 |
| 20260504221444 | 12 | 320 | 1.6 | 3.2 | 0.00 | 0.00 | 0.00 | 81 | 1014.4 |
| 20260504220940 | 13 | 137 | 0.0 | 1.6 | 0.00 | 0.00 | 0.00 | 81 | 1014.5 |
| 20260504220437 | 13 | 177 | 1.6 | 3.2 | 0.00 | 0.00 | 0.00 | 81 | 1014.7 |
| 20260504215934 | 13 | 256 | 1.6 | 3.2 | 0.00 | 0.00 | 0.00 | 80 | 1014.8 |
| 20260504215431 | 13 | 132 | 0.0 | 1.6 | 0.00 | 0.00 | 0.00 | 80 | 1014.5 |
| 20260504214927 | 13 | 245 | 3.2 | 3.2 | 0.00 | 0.00 | 0.00 | 81 | 1014.8 |
| 20260504214424 | 13 | 245 | 3.2 | 3.2 | 0.00 | 0.00 | 0.00 | 82 | 1014.7 |
| 20260504213920 | 12 | 300 | 1.6 | 3.2 | 0.00 | 0.00 | 0.00 | 82 | 1014.7 |
| 20260504213416 | 12 | 235 | 1.6 | 1.6 | 0.00 | 0.00 | 0.00 | 82 | 1014.9 |
| 20260504212914 | 13 | 282 | 1.6 | 3.2 | 0.00 | 0.00 | 0.00 | 81 | 1014.8 |
| 20260504212409 | 13 | 309 | 3.2 | 4.8 | 0.00 | 0.00 | 0.00 | 81 | 1014.8 |
| 20260504211908 | 13 | 155 | 1.6 | 3.2 | 0.00 | 0.00 | 0.00 | 80 | 1015.2 |
| 20260504211404 | 13 | 47 | 0.0 | 1.6 | 0.00 | 0.00 | 0.00 | 81 | 1014.9 |
| 20260504210901 | 13 | 155 | 1.6 | 1.6 | 0.00 | 0.00 | 0.00 | 80 | 1015.0 |
| 20260504210358 | 13 | 294 | 8.0 | 9.7 | 0.00 | 0.00 | 0.00 | 81 | 1015.1 |
| 20260504205855 | 13 | 303 | 8.0 | 9.7 | 0.00 | 0.00 | 0.00 | 82 | 1014.9 |
| 20260504205353 | 13 | 296 | 4.8 | 8.0 | 0.00 | 0.00 | 0.00 | 82 | 1015.0 |
| 20260504204851 | 12 | 268 | 8.0 | 11.3 | 0.00 | 0.00 | 0.00 | 83 | 1014.7 |
| 20260504204349 | 12 | 328 | 4.8 | 9.7 | 0.00 | 0.00 | 0.00 | 86 | 1015.1 |
| 20260504203848 | 12 | 289 | 4.8 | 9.7 | 0.00 | 0.00 | 0.00 | 88 | 1014.9 |
| 20260504203344 | 12 | 133 | 1.6 | 1.6 | 0.00 | 0.00 | 0.00 | 89 | 1015.2 |
| 20260504202840 | 12 | 227 | 8.0 | 9.7 | 0.00 | 0.00 | 0.00 | 90 | 1015.3 |
| 20260504202338 | 12 | 303 | 9.7 | 12.9 | 0.00 | 0.00 | 0.00 | 91 | 1015.5 |
| 20260504201834 | 12 | 263 | 8.0 | 11.3 | 0.00 | 0.00 | 0.00 | 91 | 1015.4 |
| 20260504201331 | 12 | 306 | 8.0 | 11.3 | 0.00 | 0.00 | 0.00 | 91 | 1015.5 |
| 20260504200829 | 13 | 293 | 4.8 | 4.8 | 0.18 | 0.00 | 0.00 | 90 | 1015.3 |
| 20260504200325 | 13 | 285 | 3.2 | 4.8 | 0.48 | 0.00 | 0.00 | 88 | 1015.3 |
| 20260504195822 | 13 | 242 | 3.2 | 3.2 | 0.48 | 0.69 | 0.69 | 85 | 1015.5 |
| 20260504195317 | 14 | 310 | 6.4 | 8.0 | 0.00 | 0.61 | 0.61 | 80 | 1015.5 |
| 20260504194814 | 14 | 350 | 1.6 | 1.6 | 0.00 | 0.61 | 0.61 | 80 | 1015.3 |
| 20260504194310 | 14 | 140 | 0.0 | 0.0 | 0.00 | 0.61 | 0.61 | 80 | 1015.4 |
| 20260504193807 | 14 | 138 | 0.0 | 0.0 | 0.00 | 0.61 | 0.61 | 80 | 1015.3 |
| 20260504193304 | 14 | 264 | 4.8 | 4.8 | 0.00 | 0.61 | 0.61 | 80 | 1015.5 |
| 20260504192803 | 14 | 201 | 3.2 | 3.2 | 0.00 | 0.61 | 0.61 | 80 | 1015.3 |
| 20260504192300 | 14 | 349 | 4.8 | 4.8 | 0.00 | 0.61 | 0.61 | 80 | 1015.5 |
| 20260504191759 | 14 | 145 | 0.0 | 1.6 | 0.00 | 0.61 | 0.61 | 79 | 1015.4 |
| 20260504191255 | 14 | 275 | 8.0 | 11.3 | 0.00 | 0.61 | 0.61 | 78 | 1015.5 |
| 20260504190751 | 14 | 131 | 1.6 | 1.6 | 0.00 | 0.61 | 0.61 | 77 | 1015.4 |
| 20260504190248 | 14 | 300 | 8.0 | 9.7 | 0.00 | 0.61 | 0.61 | 77 | 1015.4 |
| 20260504185744 | 14 | 304 | 1.6 | 3.2 | 0.00 | 0.61 | 0.61 | 77 | 1015.3 |
| 20260504185241 | 14 | 283 | 4.8 | 11.3 | 0.00 | 0.61 | 0.61 | 78 | 1015.4 |
| 20260504184737 | 14 | 147 | 3.2 | 3.2 | 0.00 | 0.61 | 0.61 | 78 | 1015.2 |
| 20260504184233 | 13 | 276 | 8.0 | 12.9 | 0.00 | 0.61 | 0.61 | 79 | 1015.1 |
| 20260504183729 | 13 | 331 | 3.2 | 3.2 | 0.00 | 0.61 | 0.61 | 80 | 1015.1 |
| 20260504183226 | 14 | 55 | 3.2 | 4.8 | 0.00 | 0.61 | 0.61 | 82 | 1015.1 |
| 20260504182724 | 14 | 165 | 4.8 | 8.0 | 0.00 | 0.61 | 0.61 | 81 | 1015.0 |
| 20260504182221 | 14 | 310 | 1.6 | 3.2 | 0.00 | 0.61 | 0.61 | 82 | 1014.8 |
| 20260504181719 | 15 | 302 | 8.0 | 11.3 | 0.00 | 0.61 | 0.61 | 82 | 1014.9 |
| 20260504181216 | 15 | 47 | 9.7 | 16.1 | 0.00 | 0.61 | 0.61 | 81 | 1014.9 |
| 20260504180715 | 15 | 225 | 8.0 | 12.9 | 0.00 | 0.61 | 0.61 | 79 | 1015.0 |
| 20260504180213 | 15 | 169 | 4.8 | 4.8 | 0.00 | 0.61 | 0.61 | 75 | 1014.8 |
| 20260504175710 | 15 | 125 | 4.8 | 4.8 | 0.00 | 0.61 | 0.61 | 75 | 1014.8 |
| 20260504175207 | 15 | 285 | 4.8 | 9.7 | 0.00 | 0.61 | 0.61 | 74 | 1014.8 |
| 20260504174705 | 15 | 197 | 4.8 | 4.8 | 0.00 | 0.61 | 0.61 | 72 | 1014.8 |
| 20260504174203 | 15 | 277 | 8.0 | 11.3 | 0.00 | 0.61 | 0.61 | 71 | 1014.8 |
| 20260504173659 | 15 | 307 | 11.3 | 14.5 | 0.00 | 0.61 | 0.61 | 69 | 1014.6 |
| 20260504173156 | 15 | 284 | 14.5 | 17.7 | 0.00 | 0.61 | 0.61 | 69 | 1014.5 |
| 20260504172652 | 15 | 311 | 12.9 | 16.1 | 0.00 | 0.61 | 0.61 | 69 | 1014.6 |
| 20260504172149 | 15 | 286 | 8.0 | 9.7 | 0.00 | 0.61 | 0.61 | 71 | 1014.5 |
| 20260504171645 | 15 | 333 | 12.9 | 14.5 | 0.00 | 0.61 | 0.61 | 72 | 1014.4 |
| 20260504171143 | 15 | 222 | 12.9 | 20.9 | 0.00 | 0.61 | 0.61 | 74 | 1014.4 |
| 20260504170639 | 15 | 307 | 11.3 | 17.7 | 0.00 | 0.61 | 0.61 | 77 | 1014.3 |
| 20260504170137 | 15 | 322 | 16.1 | 20.9 | 0.00 | 0.61 | 0.61 | 78 | 1014.3 |
| 20260504151021 | 16 | 323 | 11.3 | 12.9 | 0.00 | 0.61 | 0.61 | 73 | 1014.4 |
| 20260504150519 | 16 | 337 | 11.3 | 16.1 | 0.00 | 0.61 | 0.61 | 72 | 1014.3 |
| 20260504140945 | 16 | 186 | 8.0 | 9.7 | 0.00 | 0.61 | 0.61 | 80 | 1014.2 |
| 20260504140442 | 16 | 237 | 8.0 | 12.9 | 0.00 | 0.61 | 0.61 | 81 | 1014.2 |